sat.trackr.live / text

‹ back to catalog

STARLINK-36042

NORAD 66813 · 2025-278Y

PAYLOAD ACTIVE UNKNOWN

§ Identity

Operator
Country
US
Launch date
2025-12-01
Launch site
AFETR
Launch vehicle
Mass (kg)
RCS (m²)

Purposes: comms

External: N2YO · Heavens-Above · Gunter

§ Orbital elements

Epoch: 2026-09-19T21:25:56.807040Z

Period
94.27 min
Inclination
43.0010°
Eccentricity
0.0001507
Mean motion
15.27590577 rev/d
Perigee alt
482.0 km
Apogee alt
484.1 km
Semi-major
6,861.2 km
B*
4.1604e-4
RAAN
97.2845°
Arg perigee
269.8155°
Mean anomaly
90.2524°
Rev number
4,491

§ Raw data

STARLINK-360421 66813U 25278Y   26262.89301860  .00011208  00000+0  41604-3 0  99902 66813  43.0010  97.2845 0001507 269.8155  90.2524 15.27590577 44916

JSON: /api/v1/satellites/66813 · /tle

For live sub-satellite position, see the globe view (requires WebGL).

§ Visibility from observer

Set your observer location to see the next 7 days of passes ≥ 10°. The values pass through the URL so the page stays shareable.

No JS? Fill the form by hand. The geolocation button needs JavaScript.